GSAT0101 (GALILEO-PFM) 1 37846U 11060A 26053.46432651 -.00000082 00000+0 00000+0 0 9992 2 37846 57.0318 344.8758 0003975 357.0591 2.9533 1.70475478 89166 GSAT0102 (GALILEO-FM2) 1 37847U 11060B 26060.06318653 -.00000106 00000+0 00000+0 0 9999 2 37847 57.0301 344.6971 0005422 341.2092 154.1953 1.70475778 89286 GSAT0103 (GALILEO-FM3) 1 38857U 12055A 26066.99623144 .00000006 00000+0 00000+0 0 9996 2 38857 55.7420 104.3215 0005504 285.7148 74.2948 1.70473485 83285 GSAT0201 (GALILEO 5) 1 40128U 14050A 26062.23675925 -.00000027 00000+0 00000+0 0 9998 2 40128 48.9889 277.7718 1657553 175.2875 186.5034 1.85520013 76352 GSAT0202 (GALILEO 6) 1 40129U 14050B 26068.96050477 -.00000005 00000+0 00000+0 0 9990 2 40129 48.9994 276.5811 1660010 176.2697 185.1527 1.85520674 78645 GSAT0203 (GALILEO 7) 1 40544U 15017A 26064.97404081 -.00000105 00000+0 00000+0 0 9997 2 40544 56.8210 344.4123 0005169 295.9030 64.0652 1.70475708 67444 GSAT0204 (GALILEO 8) 1 40545U 15017B 26068.16259097 -.00000099 00000+0 00000+0 0 9990 2 40545 56.8258 344.3432 0004133 288.3156 71.6649 1.70475628 30546 GSAT0205 (GALILEO 9) 1 40889U 15045A 26043.95434207 .00000078 00000+0 00000+0 0 9996 2 40889 53.6403 225.6057 0359599 59.9658 303.5577 1.67410800 64211 GSAT0206 (GALILEO 10) 1 40890U 15045B 26068.15139683 .00000033 00000+0 00000+0 0 9998 2 40890 54.9796 224.3636 0003631 50.1302 309.8546 1.70473828 65335 GSAT0209 (GALILEO 12) 1 41174U 15079A 26067.73293229 .00000007 00000+0 00000+0 0 9992 2 41174 55.7621 104.0163 0004898 323.1919 36.8422 1.70474601 63067 GSAT0208 (GALILEO 11) 1 41175U 15079B 26069.12632082 .00000012 00000+0 00000+0 0 9998 2 41175 55.7615 103.9751 0004348 323.6585 36.3777 1.70474461 63507 GSAT0211 (GALILEO 14) 1 41549U 16030A 26067.49057084 .00000031 00000+0 00000+0 0 9993 2 41549 55.1305 224.4612 0003522 24.6498 335.3169 1.70473962 60959 GSAT0210 (GALILEO 13) 1 41550U 16030B 26069.50760796 .00000036 00000+0 00000+0 0 9995 2 41550 55.1268 224.4039 0001323 198.9369 161.0158 1.70474044 60988 GSAT0207 (GALILEO 15) 1 41859U 16069A 26069.78594416 .00000015 00000+0 00000+0 0 9990 2 41859 55.4337 103.8079 0005302 309.6491 50.3698 1.70474561 57723 GSAT0212 (GALILEO 16) 1 41860U 16069B 26067.87974888 .00000007 00000+0 00000+0 0 9996 2 41860 55.4302 103.8560 0003782 335.1738 24.8752 1.70474686 57949 GSAT0213 (GALILEO 17) 1 41861U 16069C 26069.42034064 .00000013 00000+0 00000+0 0 9990 2 41861 55.4334 103.8210 0005277 293.6120 66.3980 1.70474960 57838 GSAT0214 (GALILEO 18) 1 41862U 16069D 26068.39323944 .00000009 00000+0 00000+0 0 9999 2 41862 55.4312 103.8423 0004379 297.2549 62.7666 1.70474861 57941 GSAT0215 (GALILEO 19) 1 43055U 17079A 26069.46986544 .00000036 00000+0 00000+0 0 9997 2 43055 55.1059 224.2199 0000541 0.2605 359.6969 1.70474614 51306 GSAT0216 (GALILEO 20) 1 43056U 17079B 26068.58791585 .00000034 00000+0 00000+0 0 9997 2 43056 55.1066 224.2443 0001720 316.0212 43.9197 1.70474750 51306 GSAT0217 (GALILEO 21) 1 43057U 17079C 26065.28916355 .00000020 00000+0 00000+0 0 9991 2 43057 55.1073 224.3328 0002074 355.7864 4.1520 1.70474591 51238 GSAT0218 (GALILEO 22) 1 43058U 17079D 26069.02872155 .00000035 00000+0 00000+0 0 9993 2 43058 55.1037 224.2278 0001985 300.2580 59.6784 1.70474634 51327 GSAT0221 (GALILEO 25) 1 43564U 18060A 26065.99917537 -.00000103 00000+0 00000+0 0 9999 2 43564 57.2026 344.5430 0005694 308.1098 51.8621 1.70475614 47427 GSAT0222 (GALILEO 26) 1 43565U 18060B 26065.04549094 -.00000105 00000+0 00000+0 0 9997 2 43565 57.2060 344.5721 0004084 287.9587 72.0183 1.70475258 47453 GSAT0219 (GALILEO 23) 1 43566U 18060C 26067.02636862 -.00000101 00000+0 00000+0 0 9994 2 43566 57.2050 344.5202 0004318 344.0327 15.9782 1.70474822 47462 GSAT0220 (GALILEO 24) 1 43567U 18060D 26058.44840234 -.00000102 00000+0 00000+0 0 9992 2 43567 57.2075 344.7516 0005301 308.5821 51.3768 1.70475159 47302 GSAT0223 (GALILEO 27) 1 49809U 21116A 26048.03988929 -.00000078 00000+0 00000+0 0 9993 2 49809 57.2005 344.9238 0002865 278.1950 264.6358 1.70475508 26130 GSAT0224 (GALILEO 28) 1 49810U 21116B 26064.29072237 -.00000105 00000+0 00000+0 0 9998 2 49810 57.1948 344.4822 0001942 295.2728 253.6293 1.70475760 26438 GSAT0225 (GALILEO 29) 1 59598U 24079A 26064.58030672 .00000007 00000+0 00000+0 0 9992 2 59598 55.0507 103.9743 0002603 257.7426 101.8321 1.70474989 11547 GSAT0227 (GALILEO 30) 1 59600U 24079C 26069.45714583 .00000012 00000+0 00000+0 0 9993 2 59600 55.0487 103.8366 0000339 50.1046 309.9638 1.70474936 11684 GSAT0232 (GALILEO 32) 1 61182U 24167A 26048.66150565 .00000069 00000+0 00000+0 0 9995 2 61182 55.2225 224.5881 0003600 296.6314 116.1306 1.70443939 8265 GSAT0226 (GALILEO 31) 1 61183U 24167B 26063.09230740 .00000011 00000+0 00000+0 0 9991 2 61183 55.2176 224.2005 0001588 128.6581 232.0353 1.70474186 9066 GSAT0233 (GALILEO 33) 1 67160U 25302A 26044.50000000 -.00000008 00000+0 00000+0 0 9990 2 67160 54.3935 105.2952 0003011 207.0582 359.4109 1.70474578 20 GSAT0234 (GALILEO 34) 1 67162U 25302C 26044.50000000 -.00000008 00000+0 00000+0 0 9992 2 67162 54.3967 105.2938 0003081 266.8423 119.7309 1.70475065 127